sat.trackr.live / text

‹ back to catalog

HAWK-10A

NORAD 60540 · 2024-149CA

PAYLOAD ACTIVE UNKNOWN

§ Identity

Operator
Country
US
Launch date
2024-08-16
Launch site
AFWTR
Launch vehicle
Mass (kg)
RCS (m²)

External: N2YO · Heavens-Above · Gunter

§ Orbital elements

Epoch: 2026-09-22T15:34:02.698176Z

Period
96.21 min
Inclination
97.6821°
Eccentricity
0.0004835
Mean motion
14.96745426 rev/d
Perigee alt
573.6 km
Apogee alt
580.3 km
Semi-major
6,955.1 km
B*
3.5466e-5
RAAN
339.8599°
Arg perigee
99.2471°
Mean anomaly
260.9298°
Rev number
11,456

§ Raw data

HAWK-10A1 60540U 24149CA  26265.64864234  .00000348  00000+0  35466-4 0  99952 60540  97.6821 339.8599 0004835  99.2471 260.9298 14.96745426114569

JSON: /api/v1/satellites/60540 · /tle

For live sub-satellite position, see the globe view (requires WebGL).

§ Visibility from observer

Set your observer location to see the next 7 days of passes ≥ 10°. The values pass through the URL so the page stays shareable.

No JS? Fill the form by hand. The geolocation button needs JavaScript.